DLH71H EDDF-LEIB

Flight info

Callsign DLH71H
Flight time N/A
Altitude 35000
Route ANEKI2L/18 ANEKI Y163 HERBI Y164 MOPAN DCT LUTIX DCT BENOT DCT NEMOS DCT GEVEA DCT INCUS DCT BALSI DCT RETNO DCT TUPOX DCT MTG DCT DIVKO DCT VATIR DCT PIVUS DCT SULID DCT DIMIB DCT POS
Aircraft A321/M-SDE3FGHIRWY/LB1

Departure

Time 2026-04-18 11:16
Airport Frankfurt Main Airport (EDDF)

Arrival

Time N/A
Airport Ibiza Airport (LEIB)
Time Latitude Longitude Altitude Speed Heading
2026-04-18 10:51 50.04697 8.57096 356 ft 0 kts 115°
2026-04-18 11:06 50.04709 8.57062 356 ft 4 kts 124°
2026-04-18 11:06 50.04733 8.57021 356 ft 3 kts 149°
2026-04-18 11:06 50.04753 8.57009 356 ft 4 kts 186°
2026-04-18 11:07 50.04763 8.57012 359 ft 0 kts 206°
2026-04-18 11:09 50.04744 8.56997 364 ft 11 kts 205°
2026-04-18 11:09 50.04622 8.56918 358 ft 25 kts 194°
2026-04-18 11:09 50.04499 8.56870 363 ft 15 kts 194°
2026-04-18 11:09 50.04432 8.56748 365 ft 16 kts 250°
2026-04-18 11:10 50.04401 8.56615 357 ft 17 kts 250°
2026-04-18 11:10 50.04374 8.56499 356 ft 18 kts 250°
2026-04-18 11:10 50.04340 8.56356 359 ft 0 kts 250°
2026-04-18 11:10 50.04331 8.56320 359 ft 9 kts 250°
2026-04-18 11:11 50.04286 8.56133 357 ft 21 kts 249°
2026-04-18 11:11 50.04238 8.55939 360 ft 22 kts 250°
2026-04-18 11:11 50.04185 8.55713 354 ft 23 kts 250°
2026-04-18 11:11 50.04145 8.55546 360 ft 23 kts 249°
2026-04-18 11:12 50.04069 8.55229 357 ft 23 kts 249°
2026-04-18 11:12 50.04011 8.54989 354 ft 23 kts 249°
2026-04-18 11:12 50.03971 8.54823 354 ft 24 kts 249°
2026-04-18 11:12 50.03890 8.54482 352 ft 26 kts 250°
2026-04-18 11:13 50.03822 8.54278 353 ft 26 kts 237°
2026-04-18 11:13 50.03747 8.54021 351 ft 27 kts 252°
2026-04-18 11:13 50.03672 8.53694 347 ft 27 kts 250°
2026-04-18 11:13 50.03606 8.53423 336 ft 27 kts 249°
2026-04-18 11:14 50.03548 8.53190 334 ft 25 kts 249°
2026-04-18 11:14 50.03501 8.52993 336 ft 25 kts 249°
2026-04-18 11:14 50.03431 8.52719 333 ft 22 kts 248°
2026-04-18 11:14 50.03371 8.52596 333 ft 12 kts 193°
2026-04-18 11:15 50.03360 8.52595 335 ft 1 kts 184°
2026-04-18 11:15 50.03345 8.52593 334 ft 5 kts 184°
2026-04-18 11:15 50.03112 8.52594 335 ft 69 kts 179°
2026-04-18 11:15 50.02604 8.52602 335 ft 119 kts 180°
2026-04-18 11:16 50.01247 8.52617 370 ft 180 kts 179°
2026-04-18 11:16 50.00520 8.52642 721 ft 180 kts 178°
2026-04-18 11:16 49.98697 8.52800 1741 ft 183 kts 176°
2026-04-18 11:16 49.98298 8.52844 1933 ft 182 kts 175°
2026-04-18 11:17 49.97234 8.52960 2337 ft 184 kts 177°
2026-04-18 11:17 49.94672 8.53139 2659 ft 214 kts 176°
2026-04-18 11:18 49.89805 8.53424 4108 ft 234 kts 179°
2026-04-18 11:18 49.88329 8.53502 4710 ft 237 kts 178°
2026-04-18 11:18 49.86934 8.53582 5254 ft 239 kts 178°
2026-04-18 11:18 49.84944 8.53708 6042 ft 241 kts 178°
2026-04-18 11:19 49.83180 8.53825 6705 ft 243 kts 178°
2026-04-18 11:19 49.81607 8.53927 7315 ft 244 kts 179°
2026-04-18 11:19 49.80218 8.54015 7858 ft 245 kts 178°
2026-04-18 11:19 49.78978 8.54097 8318 ft 246 kts 178°
2026-04-18 11:20 49.77384 8.54072 8779 ft 250 kts 186°
2026-04-18 11:20 49.75062 8.53750 8983 ft 264 kts 186°
2026-04-18 11:20 49.73031 8.53466 9261 ft 281 kts 186°
2026-04-18 11:20 49.70857 8.53171 9853 ft 286 kts 186°
2026-04-18 11:21 49.68840 8.52901 10378 ft 293 kts 186°
2026-04-18 11:21 49.67342 8.52703 10478 ft 308 kts 186°
2026-04-18 11:21 49.64346 8.52313 10644 ft 333 kts 186°
2026-04-18 11:22 49.60917 8.51866 11184 ft 346 kts 186°
2026-04-18 11:22 49.57437 8.51410 11969 ft 350 kts 186°
2026-04-18 11:22 49.55208 8.51115 12464 ft 352 kts 187°
2026-04-18 11:22 49.53458 8.50884 12821 ft 354 kts 187°
2026-04-18 11:23 49.47216 8.50054 14012 ft 362 kts 187°
2026-04-18 11:23 49.45990 8.49880 14221 ft 363 kts 187°
2026-04-18 11:23 49.42507 8.49417 14883 ft 368 kts 187°
2026-04-18 11:24 49.40134 8.49116 15321 ft 371 kts 187°
2026-04-18 11:24 49.37317 8.48700 15773 ft 371 kts 188°
2026-04-18 11:24 49.34967 8.48379 16140 ft 374 kts 187°
2026-04-18 11:24 49.32310 8.48025 16533 ft 378 kts 187°
2026-04-18 11:25 49.29523 8.47679 16972 ft 380 kts 187°
2026-04-18 11:25 49.26701 8.47338 17411 ft 384 kts 187°
2026-04-18 11:25 49.24112 8.47024 17824 ft 387 kts 187°
2026-04-18 11:25 49.22192 8.46786 18120 ft 390 kts 187°
2026-04-18 11:26 49.19358 8.46431 18570 ft 392 kts 187°
2026-04-18 11:26 49.16466 8.46058 18981 ft 394 kts 187°
2026-04-18 11:26 49.13912 8.45724 19332 ft 396 kts 187°
2026-04-18 11:26 49.11016 8.45349 19733 ft 399 kts 187°
2026-04-18 11:27 49.07982 8.44951 20149 ft 401 kts 187°
2026-04-18 11:27 49.06001 8.44593 20415 ft 401 kts 193°
2026-04-18 11:27 49.03182 8.43636 20799 ft 402 kts 195°
2026-04-18 11:27 49.00644 8.42768 21142 ft 404 kts 195°
2026-04-18 11:28 48.96919 8.41471 21627 ft 407 kts 195°
2026-04-18 11:28 48.94148 8.40503 21970 ft 409 kts 196°
2026-04-18 11:28 48.92270 8.39827 22175 ft 410 kts 196°
2026-04-18 11:28 48.89146 8.38727 22544 ft 412 kts 196°
2026-04-18 11:29 48.85656 8.37521 22951 ft 415 kts 195°
2026-04-18 11:29 48.82774 8.36537 23291 ft 417 kts 195°
2026-04-18 11:29 48.80819 8.35872 23520 ft 418 kts 195°
2026-04-18 11:29 48.77642 8.34782 23867 ft 420 kts 195°
2026-04-18 11:30 48.74775 8.33755 24165 ft 422 kts 197°
2026-04-18 11:30 48.71697 8.32615 24486 ft 424 kts 197°
2026-04-18 11:30 48.68922 8.31585 24797 ft 426 kts 197°
2026-04-18 11:30 48.65956 8.30487 25118 ft 427 kts 197°
2026-04-18 11:31 48.62775 8.29315 25460 ft 429 kts 196°
2026-04-18 11:31 48.60134 8.28350 25737 ft 430 kts 196°
2026-04-18 11:31 48.57036 8.27226 26038 ft 432 kts 196°
2026-04-18 11:31 48.54106 8.26168 26334 ft 434 kts 196°
2026-04-18 11:32 48.52218 8.25490 26516 ft 434 kts 196°
2026-04-18 11:32 48.48323 8.24091 26891 ft 436 kts 196°
2026-04-18 11:32 48.45199 8.22957 27184 ft 438 kts 196°
2026-04-18 11:32 48.42363 8.21923 27450 ft 439 kts 196°
2026-04-18 11:33 48.40421 8.21217 27627 ft 440 kts 196°
2026-04-18 11:33 48.37073 8.20019 27921 ft 441 kts 196°
2026-04-18 11:33 48.33733 8.18804 28168 ft 442 kts 197°
2026-04-18 11:33 48.30786 8.17721 28411 ft 443 kts 197°
2026-04-18 11:34 48.27654 8.16568 28686 ft 445 kts 197°
2026-04-18 11:34 48.25601 8.15763 28849 ft 445 kts 200°
2026-04-18 11:34 48.22269 8.13733 29131 ft 442 kts 209°
2026-04-18 11:34 48.19123 8.11346 29389 ft 443 kts 210°
2026-04-18 11:35 48.16361 8.09272 29619 ft 444 kts 209°
2026-04-18 11:35 48.13481 8.07151 29849 ft 445 kts 208°
2026-04-18 11:35 48.10599 8.05044 30066 ft 446 kts 208°
2026-04-18 11:35 48.08171 8.03290 30232 ft 447 kts 208°
2026-04-18 11:36 48.05638 8.01444 30404 ft 448 kts 209°
2026-04-18 11:36 48.03108 7.99584 30614 ft 447 kts 209°
2026-04-18 11:36 48.00737 7.97837 30861 ft 446 kts 209°
2026-04-18 11:36 47.97124 7.95173 31181 ft 445 kts 209°
2026-04-18 11:37 47.95097 7.93682 31356 ft 444 kts 209°
2026-04-18 11:37 47.91578 7.91094 31633 ft 443 kts 209°
2026-04-18 11:37 47.89250 7.89389 31824 ft 443 kts 209°
2026-04-18 11:37 47.86035 7.87042 32098 ft 442 kts 209°
2026-04-18 11:38 47.84402 7.85853 32230 ft 442 kts 209°
2026-04-18 11:38 47.80291 7.82865 32556 ft 441 kts 208°
2026-04-18 11:38 47.78649 7.81674 32686 ft 441 kts 208°
2026-04-18 11:38 47.75455 7.79344 32953 ft 440 kts 209°
2026-04-18 11:39 47.72641 7.77278 33183 ft 439 kts 209°
2026-04-18 11:39 47.70700 7.75861 33322 ft 439 kts 209°
2026-04-18 11:39 47.67012 7.73199 33606 ft 438 kts 208°
2026-04-18 11:39 47.64031 7.71057 33817 ft 437 kts 208°
2026-04-18 11:40 47.62101 7.69671 33967 ft 437 kts 208°
2026-04-18 11:40 47.58580 7.67140 34201 ft 437 kts 208°
2026-04-18 11:40 47.55818 7.65149 34382 ft 437 kts 209°
2026-04-18 11:40 47.53065 7.63163 34551 ft 437 kts 208°
2026-04-18 11:41 47.50922 7.61621 34684 ft 437 kts 208°
2026-04-18 11:41 47.48561 7.59924 34838 ft 436 kts 208°
2026-04-18 11:41 47.45549 7.57762 35014 ft 436 kts 208°
2026-04-18 11:41 47.43807 7.56512 35122 ft 436 kts 208°
2026-04-18 11:42 47.37266 7.51838 35192 ft 436 kts 208°
2026-04-18 11:42 47.32784 7.48639 35192 ft 436 kts 208°
2026-04-18 11:43 47.28197 7.45363 35195 ft 436 kts 208°
2026-04-18 11:43 47.21132 7.40343 35192 ft 436 kts 208°
2026-04-18 11:44 47.16130 7.35745 35195 ft 431 kts 225°
2026-04-18 11:44 47.12445 7.29517 35193 ft 428 kts 234°
2026-04-18 11:45 47.08502 7.22209 35195 ft 429 kts 233°
2026-04-18 11:45 47.04581 7.15079 35206 ft 430 kts 233°
2026-04-18 11:46 47.01102 7.08748 35209 ft 430 kts 233°
2026-04-18 11:46 46.97258 7.01700 35214 ft 430 kts 233°
2026-04-18 11:47 46.93483 6.94824 35218 ft 430 kts 233°
2026-04-18 11:47 46.90049 6.89260 35218 ft 433 kts 223°
2026-04-18 11:48 46.85341 6.83649 35217 ft 434 kts 221°
2026-04-18 11:48 46.80765 6.78211 35216 ft 434 kts 221°
2026-04-18 11:49 46.75560 6.72018 35217 ft 435 kts 221°
2026-04-18 11:49 46.71158 6.66813 35219 ft 434 kts 221°
2026-04-18 11:50 46.66178 6.60937 35215 ft 434 kts 221°
2026-04-18 11:50 46.61278 6.55154 35216 ft 434 kts 221°
2026-04-18 11:51 46.56962 6.50082 35215 ft 434 kts 221°
2026-04-18 11:51 46.52200 6.44483 35214 ft 434 kts 221°
2026-04-18 11:52 46.47266 6.38692 35212 ft 434 kts 221°
2026-04-18 11:52 46.42789 6.33460 35212 ft 435 kts 221°
2026-04-18 11:53 46.38020 6.27897 35213 ft 435 kts 221°
2026-04-18 11:53 46.33162 6.22246 35214 ft 435 kts 221°
2026-04-18 11:54 46.29407 6.17886 35214 ft 435 kts 221°
2026-04-18 11:54 46.25718 6.14431 35211 ft 438 kts 208°
2026-04-18 11:54 46.24030 6.13403 35211 ft 440 kts 202°
2026-04-18 11:55 46.16767 6.11307 35212 ft 445 kts 192°
2026-04-18 11:55 46.13181 6.10507 35212 ft 445 kts 192°
2026-04-18 11:56 46.05116 6.08703 35213 ft 445 kts 192°
2026-04-18 11:56 45.98941 6.07341 35212 ft 445 kts 192°
2026-04-18 11:57 45.92560 6.05940 35206 ft 445 kts 192°
2026-04-18 11:57 45.86440 6.04597 35208 ft 445 kts 192°
2026-04-18 11:58 45.80901 6.03385 35211 ft 446 kts 192°
2026-04-18 11:58 45.74162 6.01887 35212 ft 446 kts 192°
2026-04-18 11:59 45.68118 6.00533 35212 ft 446 kts 192°
2026-04-18 11:59 45.62189 5.99221 35211 ft 446 kts 191°
2026-04-18 12:00 45.55950 5.97863 35213 ft 447 kts 191°
2026-04-18 12:00 45.51055 5.96800 35212 ft 446 kts 191°
2026-04-18 12:01 45.40643 5.94080 35212 ft 445 kts 193°
2026-04-18 12:02 45.35117 5.92396 35213 ft 445 kts 196°
2026-04-18 12:02 45.29414 5.90953 35200 ft 448 kts 185°
2026-04-18 12:03 45.24152 5.89878 35221 ft 443 kts 199°
2026-04-18 12:03 45.20128 5.88010 35994 ft 417 kts 198°
2026-04-18 12:03 45.16965 5.86789 36742 ft 408 kts 198°
2026-04-18 12:03 45.14737 5.85806 36943 ft 405 kts 201°
2026-04-18 12:04 45.11795 5.84794 36956 ft 410 kts 193°
2026-04-18 12:04 45.06125 5.83228 37092 ft 412 kts 195°
2026-04-18 12:05 45.00455 5.81503 37262 ft 413 kts 196°
2026-04-18 12:05 44.95424 5.79860 37409 ft 416 kts 194°
2026-04-18 12:06 44.88968 5.77962 37596 ft 417 kts 195°
2026-04-18 12:06 44.83898 5.76349 37740 ft 419 kts 195°
2026-04-18 12:07 44.77690 5.74234 37914 ft 420 kts 197°
2026-04-18 12:07 44.72311 5.72603 38019 ft 424 kts 187°
2026-04-18 12:08 44.67607 5.71951 38132 ft 424 kts 192°
2026-04-18 12:08 44.60947 5.69938 38233 ft 425 kts 195°
2026-04-18 12:09 44.55090 5.68171 38326 ft 425 kts 200°
2026-04-18 12:09 44.49527 5.65865 38453 ft 427 kts 194°
2026-04-18 12:10 44.43525 5.64133 38540 ft 430 kts 193°
2026-04-18 12:10 44.37706 5.62401 38647 ft 429 kts 201°
2026-04-18 12:11 44.32158 5.58956 38752 ft 426 kts 206°
2026-04-18 12:11 44.26869 5.55793 38817 ft 427 kts 208°
2026-04-18 12:12 44.21131 5.52965 38884 ft 431 kts 197°
2026-04-18 12:12 44.16347 5.50645 38932 ft 429 kts 204°
2026-04-18 12:13 44.09783 5.46671 39035 ft 429 kts 207°
2026-04-18 12:13 44.04241 5.43675 39110 ft 432 kts 202°
2026-04-18 12:14 43.99278 5.41326 39172 ft 432 kts 200°
2026-04-18 12:14 43.93613 5.38378 39191 ft 432 kts 207°
2026-04-18 12:15 43.88075 5.35108 39237 ft 433 kts 203°
2026-04-18 12:15 43.82585 5.32247 39265 ft 433 kts 208°
2026-04-18 12:16 43.76864 5.28745 39334 ft 433 kts 206°
2026-04-18 12:16 43.70553 5.25705 39371 ft 437 kts 200°
2026-04-18 12:17 43.65394 5.23034 39412 ft 435 kts 204°
2026-04-18 12:17 43.59555 5.20225 39454 ft 437 kts 201°
2026-04-18 12:18 43.53846 5.17028 39481 ft 434 kts 213°
2026-04-18 12:18 43.49107 5.13551 39510 ft 436 kts 202°
2026-04-18 12:19 43.42413 5.10407 39516 ft 438 kts 201°
2026-04-18 12:19 43.37268 5.07434 39564 ft 434 kts 214°
2026-04-18 12:20 43.32528 5.03011 39592 ft 433 kts 217°
2026-04-18 12:20 43.27107 4.97858 39642 ft 434 kts 217°
2026-04-18 12:21 43.22117 4.92900 39656 ft 432 kts 221°
2026-04-18 12:21 43.17954 4.88826 39683 ft 434 kts 217°
2026-04-18 12:22 43.12487 4.84117 39703 ft 435 kts 214°
2026-04-18 12:22 43.09888 4.81518 39690 ft 431 kts 225°
2026-04-18 12:22 43.07868 4.79096 39701 ft 433 kts 218°
2026-04-18 12:23 43.02456 4.74897 39704 ft 436 kts 210°
2026-04-18 12:23 42.97266 4.71193 39731 ft 435 kts 213°
2026-04-18 12:24 42.92059 4.67783 39764 ft 435 kts 210°
2026-04-18 12:24 42.86625 4.63623 39780 ft 434 kts 212°
2026-04-18 12:25 42.80936 4.59098 39792 ft 435 kts 211°
2026-04-18 12:25 42.76134 4.55452 39811 ft 435 kts 212°
2026-04-18 12:26 42.70979 4.51270 39827 ft 434 kts 214°
2026-04-18 12:26 42.66026 4.47022 39853 ft 434 kts 212°
2026-04-18 12:27 42.60167 4.43613 39818 ft 436 kts 210°
2026-04-18 12:27 42.54549 4.40015 39804 ft 434 kts 215°
2026-04-18 12:28 42.49448 4.35523 39838 ft 433 kts 218°
2026-04-18 12:28 42.44110 4.31210 39837 ft 436 kts 207°
2026-04-18 12:29 42.39498 4.28283 39844 ft 434 kts 213°
2026-04-18 12:29 42.34249 4.24217 39860 ft 433 kts 216°
2026-04-18 12:30 42.28922 4.20380 39858 ft 435 kts 210°
2026-04-18 12:30 42.23658 4.16369 39859 ft 433 kts 217°
2026-04-18 12:31 42.18637 4.12177 39866 ft 435 kts 211°
2026-04-18 12:31 42.13025 4.08132 39886 ft 435 kts 209°
2026-04-18 12:32 42.07471 4.04334 39900 ft 436 kts 208°
2026-04-18 12:32 42.01688 4.00323 39924 ft 435 kts 210°
2026-04-18 12:33 41.96773 3.96845 39940 ft 435 kts 210°
2026-04-18 12:33 41.91407 3.92802 39943 ft 435 kts 211°
2026-04-18 12:34 41.85961 3.88911 39953 ft 436 kts 207°
2026-04-18 12:34 41.80464 3.85365 39955 ft 437 kts 206°
2026-04-18 12:35 41.75036 3.81769 39803 ft 440 kts 210°
2026-04-18 12:35 41.72341 3.79730 39487 ft 442 kts 211°
2026-04-18 12:35 41.69481 3.77641 38997 ft 440 kts 209°
2026-04-18 12:35 41.66712 3.75782 38546 ft 435 kts 208°
2026-04-18 12:36 41.64964 3.74682 38260 ft 434 kts 207°
2026-04-18 12:36 41.62161 3.73001 37808 ft 432 kts 206°
2026-04-18 12:36 41.58593 3.70678 37225 ft 429 kts 209°
2026-04-18 12:36 41.56774 3.69476 36910 ft 429 kts 209°
2026-04-18 12:37 41.53241 3.67091 36345 ft 430 kts 209°
2026-04-18 12:37 41.51698 3.66126 36092 ft 430 kts 208°
2026-04-18 12:37 41.48022 3.63474 35448 ft 429 kts 208°
2026-04-18 12:37 41.46523 3.62634 35157 ft 432 kts 202°
2026-04-18 12:38 41.42968 3.60938 34809 ft 418 kts 211°
2026-04-18 12:38 41.40698 3.59296 34948 ft 403 kts 212°
2026-04-18 12:38 41.38276 3.57496 35118 ft 402 kts 212°
2026-04-18 12:39 41.33159 3.53800 35175 ft 411 kts 211°
2026-04-18 12:39 41.28091 3.50400 35175 ft 422 kts 209°
2026-04-18 12:40 41.22620 3.46867 35163 ft 433 kts 208°
2026-04-18 12:40 41.17040 3.43813 35167 ft 444 kts 198°
2026-04-18 12:41 41.12006 3.42465 35158 ft 449 kts 193°
2026-04-18 12:41 41.04690 3.40438 35176 ft 449 kts 194°
2026-04-18 12:42 40.98499 3.38815 35175 ft 449 kts 194°
2026-04-18 12:42 40.92481 3.37264 35186 ft 451 kts 195°
2026-04-18 12:43 40.85883 3.35484 35181 ft 452 kts 193°
2026-04-18 12:43 40.80084 3.34054 35180 ft 451 kts 195°
2026-04-18 12:44 40.73966 3.32475 35187 ft 452 kts 194°
2026-04-18 12:44 40.67834 3.30794 35193 ft 451 kts 194°
2026-04-18 12:45 40.61610 3.29190 35196 ft 452 kts 193°
2026-04-18 12:45 40.55278 3.27638 35190 ft 452 kts 194°
2026-04-18 12:46 40.49072 3.26005 35179 ft 451 kts 194°
2026-04-18 12:46 40.42769 3.24326 35193 ft 451 kts 194°
2026-04-18 12:47 40.36537 3.22693 35195 ft 451 kts 194°
2026-04-18 12:47 40.31560 3.21421 35198 ft 452 kts 194°
2026-04-18 12:48 40.25305 3.19831 35203 ft 452 kts 193°
2026-04-18 12:48 40.18791 3.18290 35189 ft 452 kts 194°
2026-04-18 12:49 40.12767 3.16642 35182 ft 452 kts 195°
2026-04-18 12:49 40.06909 3.15063 35192 ft 453 kts 194°
2026-04-18 12:50 40.00074 3.13405 35192 ft 454 kts 193°
2026-04-18 12:50 39.96974 3.12643 35186 ft 453 kts 197°
2026-04-18 12:50 39.91149 3.09997 33748 ft 453 kts 204°
2026-04-18 12:51 39.87697 3.07968 32591 ft 447 kts 211°
2026-04-18 12:51 39.86165 3.06929 32144 ft 443 kts 211°
2026-04-18 12:51 39.83343 3.04917 31299 ft 437 kts 212°
2026-04-18 12:52 39.78543 3.01285 29919 ft 431 kts 213°
2026-04-18 12:52 39.75184 2.98717 29399 ft 413 kts 212°
2026-04-18 12:52 39.72714 2.96870 29205 ft 402 kts 212°
2026-04-18 12:52 39.70194 2.95031 28798 ft 397 kts 211°
2026-04-18 12:53 39.68464 2.93800 28489 ft 394 kts 211°
2026-04-18 12:53 39.66044 2.92077 28254 ft 393 kts 211°
2026-04-18 12:53 39.63398 2.90154 27976 ft 394 kts 212°
2026-04-18 12:53 39.60486 2.88038 27674 ft 393 kts 211°
2026-04-18 12:54 39.58466 2.86579 27455 ft 392 kts 211°
2026-04-18 12:54 39.56278 2.85055 27227 ft 390 kts 212°
2026-04-18 12:54 39.54514 2.83652 27031 ft 389 kts 213°
2026-04-18 12:54 39.51489 2.81432 26706 ft 388 kts 210°
2026-04-18 12:55 39.49293 2.79915 26473 ft 387 kts 210°
2026-04-18 12:55 39.47924 2.78963 26330 ft 387 kts 210°
2026-04-18 12:55 39.44773 2.76610 26002 ft 385 kts 218°
2026-04-18 12:55 39.42117 2.73537 25659 ft 381 kts 230°
2026-04-18 12:56 39.40896 2.71664 25485 ft 379 kts 232°
2026-04-18 12:56 39.40784 2.71489 25468 ft 378 kts 233°
2026-04-18 12:56 39.38358 2.67648 25102 ft 376 kts 233°
2026-04-18 12:56 39.35943 2.63793 24732 ft 375 kts 233°
2026-04-18 12:57 39.34142 2.60945 24458 ft 374 kts 232°
2026-04-18 12:57 39.33086 2.59290 24294 ft 373 kts 232°
2026-04-18 12:57 39.31014 2.56036 23982 ft 372 kts 232°
2026-04-18 12:57 39.29341 2.53434 23727 ft 372 kts 226°
2026-04-18 12:58 39.28283 2.52200 23575 ft 371 kts 221°
2026-04-18 12:58 39.26340 2.49783 23327 ft 369 kts 231°
2026-04-18 12:58 39.24181 2.46163 22983 ft 367 kts 236°
2026-04-18 12:59 39.21438 2.40774 22480 ft 365 kts 238°
2026-04-18 12:59 39.20207 2.38564 22286 ft 365 kts 234°
2026-04-18 12:59 39.18260 2.35448 21982 ft 365 kts 231°
2026-04-18 12:59 39.17091 2.33689 21798 ft 364 kts 231°
2026-04-18 13:00 39.14665 2.30125 21430 ft 362 kts 231°
2026-04-18 13:00 39.13569 2.28500 21213 ft 358 kts 231°
2026-04-18 13:01 39.09507 2.21870 20070 ft 349 kts 235°
2026-04-18 13:01 39.07718 2.18956 19575 ft 347 kts 231°
2026-04-18 13:01 39.05764 2.16059 19041 ft 344 kts 230°
2026-04-18 13:01 39.04437 2.14093 18695 ft 341 kts 231°
2026-04-18 13:02 39.01138 2.09075 17804 ft 337 kts 232°
2026-04-18 13:02 38.99633 2.06731 17393 ft 335 kts 232°
2026-04-18 13:02 38.98114 2.04368 16961 ft 333 kts 232°
2026-04-18 13:03 38.96568 2.01953 16545 ft 331 kts 232°
2026-04-18 13:03 38.93699 1.97506 16020 ft 317 kts 232°
2026-04-18 13:03 38.93097 1.96570 15964 ft 312 kts 232°
2026-04-18 13:04 38.91521 1.94119 15841 ft 318 kts 232°
2026-04-18 13:04 38.90006 1.90900 15679 ft 302 kts 246°
2026-04-18 13:04 38.89804 1.90331 15645 ft 309 kts 248°
2026-04-18 13:04 38.88699 1.86057 15385 ft 301 kts 246°
2026-04-18 13:05 38.87927 1.84094 15061 ft 296 kts 243°
2026-04-18 13:05 38.87370 1.82795 14792 ft 292 kts 244°
2026-04-18 13:05 38.85978 1.79150 14014 ft 290 kts 260°
2026-04-18 13:05 38.86002 1.76166 13414 ft 276 kts 289°
2026-04-18 13:06 38.87032 1.74300 13262 ft 264 kts 326°
2026-04-18 13:06 38.88736 1.73132 12206 ft 284 kts 349°
2026-04-18 13:06 38.90933 1.73057 11436 ft 289 kts 18°
2026-04-18 13:06 38.92576 1.74106 10962 ft 290 kts 39°
2026-04-18 13:07 38.93959 1.76348 10143 ft 301 kts 59°
2026-04-18 13:07 38.94134 1.76742 10029 ft 302 kts 59°
2026-04-18 13:07 38.95355 1.79628 9118 ft 312 kts 61°
2026-04-18 13:07 38.96848 1.83379 8002 ft 320 kts 61°
2026-04-18 13:08 38.98233 1.85591 7374 ft 317 kts 36°
2026-04-18 13:08 38.99701 1.86533 6879 ft 318 kts 14°
2026-04-18 13:08 39.03475 1.85663 6650 ft 296 kts 328°
2026-04-18 13:09 39.04874 1.83806 6536 ft 322 kts 300°
2026-04-18 13:09 39.05527 1.80342 6403 ft 359 kts 269°
2026-04-18 13:09 39.05179 1.78087 6260 ft 349 kts 247°
2026-04-18 13:09 39.03143 1.74709 6012 ft 328 kts 216°
2026-04-18 13:10 39.01987 1.73654 5874 ft 320 kts 217°
2026-04-18 13:10 39.00473 1.71300 5471 ft 309 kts 249°
2026-04-18 13:10 39.00466 1.71278 5471 ft 309 kts 249°
2026-04-18 13:10 38.99297 1.66120 4674 ft 302 kts 238°
2026-04-18 13:11 38.97998 1.63385 4219 ft 296 kts 242°
2026-04-18 13:11 38.96694 1.60027 3668 ft 298 kts 248°
2026-04-18 13:11 38.96134 1.58462 3400 ft 302 kts 242°
2026-04-18 13:12 38.94266 1.54334 2694 ft 292 kts 242°
2026-04-18 13:12 38.93144 1.51542 2228 ft 287 kts 243°
2026-04-18 13:12 38.92753 1.50571 2065 ft 285 kts 247°
2026-04-18 13:12 38.91413 1.47414 1466 ft 293 kts 240°